Вернуться в каталог

STARLINK-36434

АктивенСвязьVLEO
NORAD 67322·PAYLOAD·🇺🇸 United States

Запущен Jan 4, 2026 с Cape Canaveral Space Force Station

Loading…

Ближайшие Пролёты (ближайшие 24 часа)

TLE

СвежийSource: CelesTrak SupGP

Эпоха: Sep 15, 2026, 03:00 UTC

1 67322C 26002T   26258.12548611  .00040975  00000+0  14838-2 0  2589
2 67322  43.0008 335.7397 0001403 263.9871 222.1114 15.27565983    13

Отслеживайте STARLINK-36434 в реальном времени с AllMySat

Download on the App Store